This is the latest recevied weather packets stored in our database for station/object IK1YPD-13. If no packets are shown the sender has not sent any weather packets the latest 10 day(s).
| Time | Temp. | Humidity | Pressure | Rain* | Wind** | Luminosity | Snow |
|---|---|---|---|---|---|---|---|
| 1787826147 | 30° C | 45% | 1013 hPa | - | - | - | - |
| 1787825247 | 30° C | 45% | 1013 hPa | - | - | - | - |
| 1787824347 | 30.56° C | 47% | 1012 hPa | - | - | - | - |
| 1787823447 | 30° C | 48% | 1012 hPa | - | - | - | - |
| 1787822547 | 30° C | 50% | 1012 hPa | - | - | - | - |
| 1787821647 | 29.44° C | 50% | 1012 hPa | - | - | - | - |
| 1787820747 | 29.44° C | 52% | 1012 hPa | - | - | - | - |
| 1787819846 | 29.44° C | 48% | 1012 hPa | - | - | - | - |
| 1787818946 | 29.44° C | 55% | 1012 hPa | - | - | - | - |
| 1787818046 | 28.89° C | 60% | 1012 hPa | - | - | - | - |
| 1787817146 | 28.89° C | 58% | 1012 hPa | - | - | - | - |
| 1787816246 | 27.78° C | 67% | 1013 hPa | - | - | - | - |
| 1787815346 | 26.67° C | 67% | 1012 hPa | - | - | - | - |
| 1787814446 | 25.56° C | 72% | 1013 hPa | - | - | - | - |
| 1787813546 | 24.44° C | 74% | 1012 hPa | - | - | - | - |
| 1787812646 | 23.33° C | 83% | 1012 hPa | - | - | - | - |
| 1787811746 | 22.78° C | 83% | 1013 hPa | - | - | - | - |
| 1787810846 | 22.22° C | 82% | 1012 hPa | - | - | - | - |
| 1787809946 | 21.67° C | 84% | 1012 hPa | - | - | - | - |
| 1787809046 | 21.11° C | 85% | 1012 hPa | - | - | - | - |
| 1787808146 | 20.56° C | 86% | 1012 hPa | - | - | - | - |
| 1787807246 | 20.56° C | 86% | 1012 hPa | - | - | - | - |
| 1787806345 | 20.56° C | 87% | 1012 hPa | - | - | - | - |
| 1787805445 | 20.56° C | 86% | 1012 hPa | - | - | - | - |
| 1787804545 | 20.56° C | 86% | 1012 hPa | - | - | - | - |
* Rain since midnight (hover to see other rain measurements)
** Current wind speed in m/s (hover to see current wind gust speed)